"datetime","temp","dp","rain_mm","uv","solar","mb","wind_mph","gust_mph","windchill","rh"
"2022-03-12 00:00:00",8.8,7.9,0.0,0.0,0,1002.9,2,4,8.0,94
"2022-03-12 00:01:00",8.8,7.9,0.0,0.0,0,1002.9,3,5,7.6,94
"2022-03-12 00:02:00",8.8,7.9,0.0,0.0,0,1002.9,3,6,7.3,94
"2022-03-12 00:03:00",8.8,7.9,0.0,0.0,0,1002.9,2,4,8.0,94
"2022-03-12 00:04:00",8.8,7.9,0.0,0.0,0,1002.9,1,3,"",94
"2022-03-12 00:05:00",8.8,7.9,0.0,0.0,0,1002.9,2,6,7.3,94
"2022-03-12 00:06:00",8.8,7.9,0.0,0.0,0,1002.9,3,5,7.6,94
"2022-03-12 00:07:00",8.8,7.9,0.0,0.0,0,1002.9,3,3,"",94
"2022-03-12 00:08:00",8.8,7.9,0.0,0.0,0,1002.9,4,8,6.7,94
"2022-03-12 00:09:00",8.8,7.9,0.0,0.0,0,1002.9,5,8,6.7,94
"2022-03-12 00:10:00",8.8,7.9,0.0,0.0,0,1002.9,3,6,7.3,94
"2022-03-12 00:11:00",8.8,7.9,0.0,0.0,0,1002.9,5,8,6.7,94
"2022-03-12 00:12:00",8.8,7.9,0.0,0.0,0,1002.9,4,8,6.7,94
"2022-03-12 00:13:00",8.8,7.9,0.0,0.0,0,1003.0,2,4,8.0,94
"2022-03-12 00:14:00",8.8,7.9,0.0,0.0,0,1003.0,4,7,7.0,94
"2022-03-12 00:15:00",8.8,7.9,0.0,0.0,0,1003.0,2,3,"",94
"2022-03-12 00:16:00",8.8,7.9,0.0,0.0,0,1003.0,2,4,8.0,94
"2022-03-12 00:17:00",8.8,7.9,0.0,0.0,0,1003.0,2,3,"",94
"2022-03-12 00:18:00",8.8,7.9,0.0,0.0,0,1003.0,5,9,6.4,94
"2022-03-12 00:19:00",8.8,7.9,0.0,0.0,0,1003.0,3,6,7.3,94
"2022-03-12 00:20:00",8.8,7.9,0.0,0.0,0,1003.0,3,5,7.6,94
"2022-03-12 00:21:00",8.8,7.9,0.0,0.0,0,1003.0,3,10,6.3,94
"2022-03-12 00:22:00",8.8,7.9,0.0,0.0,0,1003.0,7,11,6.1,94
"2022-03-12 00:23:00",8.8,7.9,0.0,0.0,0,1003.0,3,8,6.7,94
"2022-03-12 00:24:00",8.8,7.9,0.0,0.0,0,1003.0,6,12,5.8,94
"2022-03-12 00:25:00",8.8,7.9,0.0,0.0,0,1003.0,3,8,6.7,94
"2022-03-12 00:26:00",8.7,7.8,0.0,0.0,0,1003.1,3,4,7.9,94
"2022-03-12 00:27:00",8.8,7.9,0.0,0.0,0,1003.0,3,5,7.6,94
"2022-03-12 00:28:00",8.8,7.9,0.0,0.0,0,1003.1,3,4,7.9,94
"2022-03-12 00:29:00",8.7,7.8,0.0,0.0,0,1003.1,5,10,6.2,94
"2022-03-12 00:30:00",8.8,7.9,0.0,0.0,0,1003.0,3,5,7.5,94
"2022-03-12 00:31:00",8.7,7.8,0.0,0.0,0,1003.0,6,9,6.4,94
"2022-03-12 00:32:00",8.7,7.8,0.0,0.0,0,1003.1,5,10,6.2,94
"2022-03-12 00:33:00",8.7,7.8,0.0,0.0,0,1003.0,4,7,6.9,94
"2022-03-12 00:34:00",8.7,7.8,0.0,0.0,0,1003.0,3,6,7.3,94
"2022-03-12 00:35:00",8.7,7.8,0.0,0.0,0,1003.0,3,6,7.1,94
"2022-03-12 00:36:00",8.7,7.8,0.0,0.0,0,1003.0,5,10,6.2,94
"2022-03-12 00:37:00",8.7,7.8,0.0,0.0,0,1003.0,4,8,6.6,94
"2022-03-12 00:38:00",8.7,7.8,0.0,0.0,0,1003.1,2,5,7.5,94
"2022-03-12 00:39:00",8.7,7.8,0.0,0.0,0,1003.0,4,8,6.6,94
"2022-03-12 00:40:00",8.8,7.9,0.0,0.0,0,1003.0,3,6,7.1,94
"2022-03-12 00:41:00",8.7,7.8,0.0,0.0,0,1003.1,5,9,6.4,94
"2022-03-12 00:42:00",8.7,7.8,0.0,0.0,0,1003.1,5,8,6.6,94
"2022-03-12 00:43:00",8.7,7.8,0.0,0.0,0,1003.1,4,8,6.6,94
"2022-03-12 00:44:00",8.7,7.8,0.0,0.0,0,1003.1,4,7,6.9,94
"2022-03-12 00:45:00",8.7,7.8,0.0,0.0,0,1003.1,4,6,7.1,94
"2022-03-12 00:46:00",8.7,7.8,0.0,0.0,0,1003.2,6,12,5.8,94
"2022-03-12 00:47:00",8.7,7.8,0.0,0.0,0,1003.2,7,13,5.6,94
"2022-03-12 00:48:00",8.7,7.8,0.0,0.0,0,1003.2,5,8,6.6,94
"2022-03-12 00:49:00",8.7,7.8,0.0,0.0,0,1003.2,4,8,6.6,94
"2022-03-12 00:50:00",8.7,7.8,0.0,0.0,0,1003.2,3,7,6.9,94
"2022-03-12 00:51:00",8.7,7.8,0.0,0.0,0,1003.2,5,9,6.4,94
"2022-03-12 00:52:00",8.7,7.8,0.0,0.0,0,1003.3,5,10,6.2,94
"2022-03-12 00:53:00",8.7,7.8,0.0,0.0,0,1003.2,3,5,7.5,94
"2022-03-12 00:54:00",8.7,7.8,0.0,0.0,0,1003.2,3,7,6.9,94
"2022-03-12 00:55:00",8.7,7.8,0.0,0.0,0,1003.3,3,5,7.5,94
"2022-03-12 00:56:00",8.7,7.8,0.0,0.0,0,1003.3,4,9,6.4,94
"2022-03-12 00:57:00",8.7,7.8,0.0,0.0,0,1003.3,5,8,6.6,94
"2022-03-12 00:58:00",8.7,7.6,0.0,0.0,0,1003.3,7,11,6.0,93
"2022-03-12 00:59:00",8.7,7.8,0.0,0.0,0,1003.3,5,13,5.6,94
"2022-03-12 01:00:00",8.7,7.6,0.0,0.0,0,1003.3,4,8,6.6,93
"2022-03-12 01:01:00",8.7,7.6,0.0,0.0,0,1003.3,1,2,"",93
"2022-03-12 01:02:00",8.7,7.6,0.0,0.0,0,1003.3,3,6,7.1,93
"2022-03-12 01:03:00",8.7,7.8,0.0,0.0,0,1003.3,2,5,7.5,94
"2022-03-12 01:04:00",8.7,7.6,0.0,0.0,0,1003.3,4,6,7.1,93
"2022-03-12 01:05:00",8.7,7.8,0.0,0.0,0,1003.3,5,7,6.9,94
"2022-03-12 01:06:00",8.7,7.6,0.0,0.0,0,1003.3,5,9,6.4,93
"2022-03-12 01:07:00",8.7,7.6,0.0,0.0,0,1003.3,2,4,7.9,93
"2022-03-12 01:08:00",8.7,7.6,0.0,0.0,0,1003.3,3,6,7.1,93
"2022-03-12 01:09:00",8.7,7.6,0.0,0.0,0,1003.3,3,6,7.1,93
"2022-03-12 01:10:00",8.7,7.6,0.0,0.0,0,1003.3,3,4,7.9,93
"2022-03-12 01:11:00",8.7,7.6,0.0,0.0,0,1003.3,3,6,7.1,93
"2022-03-12 01:12:00",8.7,7.6,0.0,0.0,0,1003.4,4,5,7.5,93
"2022-03-12 01:13:00",8.7,7.6,0.0,0.0,0,1003.3,2,4,7.9,93
"2022-03-12 01:14:00",8.7,7.6,0.0,0.0,0,1003.4,2,5,7.5,93
"2022-03-12 01:15:00",8.7,7.6,0.0,0.0,0,1003.4,3,6,7.1,93
"2022-03-12 01:16:00",8.7,7.6,0.0,0.0,0,1003.4,6,8,6.6,93
"2022-03-12 01:17:00",8.7,7.6,0.0,0.0,0,1003.3,3,9,6.4,93
"2022-03-12 01:18:00",8.7,7.6,0.0,0.0,0,1003.3,6,9,6.4,93
"2022-03-12 01:19:00",8.7,7.6,0.0,0.0,0,1003.3,3,6,7.1,93
"2022-03-12 01:20:00",8.7,7.6,0.0,0.0,0,1003.4,2,6,7.1,93
"2022-03-12 01:21:00",8.7,7.6,0.0,0.0,0,1003.4,2,3,"",93
"2022-03-12 01:22:00",8.7,7.6,0.0,0.0,0,1003.4,5,9,6.4,93
"2022-03-12 01:23:00",8.7,7.6,0.0,0.0,0,1003.4,6,9,6.4,93
"2022-03-12 01:24:00",8.7,7.6,0.0,0.0,0,1003.3,3,7,6.7,93
"2022-03-12 01:25:00",8.7,7.6,0.0,0.0,0,1003.3,2,4,7.9,93
"2022-03-12 01:26:00",8.6,7.5,0.0,0.0,0,1003.4,3,5,7.4,93
"2022-03-12 01:27:00",8.7,7.6,0.0,0.0,0,1003.3,3,5,7.4,93
"2022-03-12 01:28:00",8.7,7.6,0.0,0.0,0,1003.3,3,4,7.9,93
"2022-03-12 01:29:00",8.6,7.5,0.0,0.0,0,1003.4,3,5,7.5,93
"2022-03-12 01:30:00",8.6,7.5,0.0,0.0,0,1003.3,2,4,7.9,93
"2022-03-12 01:31:00",8.7,7.6,0.0,0.0,0,1003.4,2,5,7.4,93
"2022-03-12 01:32:00",8.7,7.6,0.0,0.0,0,1003.3,2,4,7.9,93
"2022-03-12 01:33:00",8.7,7.6,0.0,0.0,0,1003.4,3,6,7.0,93
"2022-03-12 01:34:00",8.6,7.5,0.0,0.0,0,1003.4,3,6,7.0,93
"2022-03-12 01:35:00",8.6,7.5,0.0,0.0,0,1003.4,5,10,6.0,93
"2022-03-12 01:36:00",8.6,7.5,0.0,0.0,0,1003.4,4,6,7.0,93
"2022-03-12 01:37:00",8.6,7.5,0.0,0.0,0,1003.4,2,4,7.7,93
"2022-03-12 01:38:00",8.6,7.5,0.0,0.0,0,1003.4,3,5,7.4,93
"2022-03-12 01:39:00",8.6,7.5,0.0,0.0,0,1003.4,5,10,6.0,93
"2022-03-12 01:40:00",8.6,7.5,0.0,0.0,0,1003.3,6,9,6.3,93
"2022-03-12 01:41:00",8.6,7.5,0.0,0.0,0,1003.4,3,8,6.5,93
"2022-03-12 01:42:00",8.6,7.5,0.0,0.0,0,1003.4,4,9,6.3,93
"2022-03-12 01:43:00",8.6,7.5,0.0,0.0,0,1003.4,4,7,6.7,93
"2022-03-12 01:44:00",8.6,7.5,0.0,0.0,0,1003.4,3,7,6.7,93
"2022-03-12 01:45:00",8.6,7.5,0.0,0.0,0,1003.5,3,5,7.4,93
"2022-03-12 01:46:00",8.6,7.5,0.0,0.0,0,1003.5,5,9,6.3,93
"2022-03-12 01:47:00",8.6,7.5,0.0,0.0,0,1003.4,6,13,5.5,93
"2022-03-12 01:48:00",8.6,7.5,0.0,0.0,0,1003.5,6,12,5.7,93
"2022-03-12 01:49:00",8.6,7.4,0.0,0.0,0,1003.5,5,9,6.3,92
"2022-03-12 01:50:00",8.6,7.4,0.0,0.0,0,1003.5,5,8,6.5,92
"2022-03-12 01:51:00",8.6,7.4,0.0,0.0,0,1003.4,5,9,6.3,92
"2022-03-12 01:52:00",8.6,7.4,0.0,0.0,0,1003.4,3,5,7.4,92
"2022-03-12 01:53:00",8.6,7.4,0.0,0.0,0,1003.4,4,10,6.0,92
"2022-03-12 01:54:00",8.6,7.4,0.0,0.0,0,1003.4,3,5,7.4,92
"2022-03-12 01:55:00",8.6,7.4,0.0,0.0,0,1003.5,2,5,7.4,92
"2022-03-12 01:56:00",8.6,7.4,0.0,0.0,0,1003.5,3,7,6.7,92
"2022-03-12 01:57:00",8.6,7.4,0.0,0.0,0,1003.5,3,4,7.7,92
"2022-03-12 01:58:00",8.6,7.4,0.0,0.0,0,1003.5,2,4,7.7,92
"2022-03-12 01:59:00",8.6,7.4,0.0,0.0,0,1003.5,4,7,6.7,92
"2022-03-12 02:00:00",8.6,7.4,0.0,0.0,0,1003.5,3,4,7.7,92
"2022-03-12 02:01:00",8.6,7.4,0.0,0.0,0,1003.5,2,5,7.4,92
"2022-03-12 02:02:00",8.6,7.4,0.0,0.0,0,1003.5,3,6,7.0,92
"2022-03-12 02:03:00",8.6,7.4,0.0,0.0,0,1003.4,3,5,7.4,92
"2022-03-12 02:04:00",8.6,7.4,0.0,0.0,0,1003.5,4,9,6.3,92
"2022-03-12 02:05:00",8.6,7.4,0.0,0.0,0,1003.5,3,6,7.0,92
"2022-03-12 02:06:00",8.6,7.4,0.0,0.0,0,1003.5,4,9,6.3,92
"2022-03-12 02:07:00",8.6,7.4,0.0,0.0,0,1003.5,3,5,7.4,92
"2022-03-12 02:08:00",8.6,7.4,0.0,0.0,0,1003.4,4,9,6.3,92
"2022-03-12 02:09:00",8.6,7.4,0.0,0.0,0,1003.5,6,13,5.5,92
"2022-03-12 02:10:00",8.6,7.4,0.0,0.0,0,1003.5,4,6,7.0,92
"2022-03-12 02:11:00",8.6,7.4,0.0,0.0,0,1003.5,4,7,6.7,92
"2022-03-12 02:12:00",8.6,7.4,0.0,0.0,0,1003.5,3,7,6.7,92
"2022-03-12 02:13:00",8.6,7.4,0.0,0.0,0,1003.5,3,6,7.0,92
"2022-03-12 02:14:00",8.6,7.4,0.0,0.0,0,1003.5,6,10,6.0,92
"2022-03-12 02:15:00",8.6,7.4,0.0,0.0,0,1003.5,3,5,7.4,92
"2022-03-12 02:16:00",8.6,7.4,0.0,0.0,0,1003.5,4,10,6.0,92
"2022-03-12 02:17:00",8.6,7.4,0.0,0.0,0,1003.5,4,6,7.0,92
"2022-03-12 02:18:00",8.6,7.4,0.0,0.0,0,1003.5,2,4,7.7,92
"2022-03-12 02:19:00",8.5,7.3,0.0,0.0,0,1003.5,2,7,6.6,92
"2022-03-12 02:20:00",8.6,7.4,0.0,0.0,0,1003.5,6,8,6.5,92
"2022-03-12 02:21:00",8.6,7.4,0.0,0.0,0,1003.5,5,9,6.3,92
"2022-03-12 02:22:00",8.6,7.4,0.0,0.0,0,1003.5,5,12,5.7,92
"2022-03-12 02:23:00",8.5,7.3,0.0,0.0,0,1003.6,3,6,7.0,92
"2022-03-12 02:24:00",8.5,7.3,0.0,0.0,0,1003.6,3,5,7.2,92
"2022-03-12 02:25:00",8.5,7.3,0.0,0.0,0,1003.4,3,6,6.9,92
"2022-03-12 02:26:00",8.6,7.4,0.0,0.0,0,1003.5,3,5,7.4,92
"2022-03-12 02:27:00",8.6,7.4,0.0,0.0,0,1003.5,4,6,7.0,92
"2022-03-12 02:28:00",8.6,7.4,0.0,0.0,0,1003.5,6,9,6.3,92
"2022-03-12 02:29:00",8.6,7.4,0.0,0.0,0,1003.5,5,9,6.3,92
"2022-03-12 02:30:00",8.6,7.4,0.0,0.0,0,1003.5,3,6,7.0,92
"2022-03-12 02:31:00",8.5,7.3,0.0,0.0,0,1003.5,4,7,6.7,92
"2022-03-12 02:32:00",8.6,7.4,0.0,0.0,0,1003.6,5,9,6.3,92
"2022-03-12 02:33:00",8.5,7.3,0.0,0.0,0,1003.5,4,5,7.2,92
"2022-03-12 02:34:00",8.6,7.4,0.0,0.0,0,1003.5,5,11,5.7,92
"2022-03-12 02:35:00",8.5,7.3,0.0,0.0,0,1003.5,4,8,6.4,92
"2022-03-12 02:36:00",8.6,7.4,0.0,0.0,0,1003.4,2,3,"",92
"2022-03-12 02:37:00",8.6,7.4,0.0,0.0,0,1003.5,3,5,7.2,92
"2022-03-12 02:38:00",8.5,7.3,0.0,0.0,0,1003.5,3,6,7.0,92
"2022-03-12 02:39:00",8.5,7.3,0.0,0.0,0,1003.5,4,7,6.6,92
"2022-03-12 02:40:00",8.6,7.4,0.0,0.0,0,1003.5,5,7,6.6,92
"2022-03-12 02:41:00",8.6,7.4,0.0,0.0,0,1003.5,3,4,7.6,92
"2022-03-12 02:42:00",8.6,7.4,0.0,0.0,0,1003.5,2,3,"",92
"2022-03-12 02:43:00",8.5,7.3,0.0,0.0,0,1003.5,3,6,6.9,92
"2022-03-12 02:44:00",8.5,7.3,0.0,0.0,0,1003.5,6,10,5.9,92
"2022-03-12 02:45:00",8.5,7.3,0.0,0.0,0,1003.5,2,6,6.9,92
"2022-03-12 02:46:00",8.5,7.3,0.0,0.0,0,1003.5,3,7,6.6,92
"2022-03-12 02:47:00",8.6,7.4,0.0,0.0,0,1003.4,3,7,6.6,92
"2022-03-12 02:48:00",8.5,7.3,0.0,0.0,0,1003.5,6,11,5.7,92
"2022-03-12 02:49:00",8.5,7.3,0.0,0.0,0,1003.5,4,7,6.6,92
"2022-03-12 02:50:00",8.5,7.3,0.0,0.0,0,1003.5,6,14,5.2,92
"2022-03-12 02:51:00",8.5,7.3,0.0,0.0,0,1003.5,4,11,5.7,92
"2022-03-12 02:52:00",8.5,7.3,0.0,0.0,0,1003.5,4,6,6.9,92
"2022-03-12 02:53:00",8.5,7.3,0.0,0.0,0,1003.6,6,11,5.7,92
"2022-03-12 02:54:00",8.5,7.3,0.0,0.0,0,1003.5,4,7,6.6,92
"2022-03-12 02:55:00",8.4,7.2,0.0,0.0,0,1003.6,2,3,"",92
"2022-03-12 02:56:00",8.5,7.3,0.0,0.0,0,1003.5,3,6,6.9,92
"2022-03-12 02:57:00",8.5,7.3,0.0,0.0,0,1003.5,3,6,6.9,92
"2022-03-12 02:58:00",8.4,7.2,0.2,0.0,0,1003.5,2,4,7.5,92
"2022-03-12 02:59:00",8.5,7.3,0.2,0.0,0,1003.5,5,9,6.0,92
"2022-03-12 03:00:00",8.4,7.2,0.2,0.0,0,1003.6,5,8,6.2,92
"2022-03-12 03:01:00",8.4,7.2,0.2,0.0,0,1003.5,1,2,"",92
"2022-03-12 03:02:00",8.4,7.2,0.2,0.0,0,1003.6,1,3,"",92
"2022-03-12 03:03:00",8.4,7.2,0.2,0.0,0,1003.6,1,2,"",92
"2022-03-12 03:04:00",8.4,7.2,0.2,0.0,0,1003.5,0,1,"",92
"2022-03-12 03:05:00",8.5,7.3,0.2,0.0,0,1003.5,1,2,"",92
"2022-03-12 03:06:00",8.5,7.3,0.2,0.0,0,1003.6,2,3,"",92
"2022-03-12 03:07:00",8.4,7.2,0.2,0.0,0,1003.6,2,6,6.8,92
"2022-03-12 03:08:00",8.4,7.2,0.2,0.0,0,1003.6,1,3,"",92
"2022-03-12 03:09:00",8.4,7.2,0.2,0.0,0,1003.6,3,5,7.1,92
"2022-03-12 03:10:00",8.4,7.2,0.2,0.0,0,1003.6,4,7,6.5,92
"2022-03-12 03:11:00",8.4,7.2,0.2,0.0,0,1003.6,2,7,6.5,92
"2022-03-12 03:12:00",8.4,7.2,0.2,0.0,0,1003.7,2,5,7.1,92
"2022-03-12 03:13:00",8.4,7.2,0.2,0.0,0,1003.6,4,8,6.2,92
"2022-03-12 03:14:00",8.4,7.2,0.2,0.0,0,1003.6,5,7,6.5,92
"2022-03-12 03:15:00",8.4,7.2,0.2,0.0,0,1003.6,4,7,6.5,92
"2022-03-12 03:16:00",8.4,7.2,0.2,0.0,0,1003.7,4,9,6.0,92
"2022-03-12 03:17:00",8.4,7.2,0.2,0.0,0,1003.7,4,8,6.2,92
"2022-03-12 03:18:00",8.4,7.2,0.2,0.0,0,1003.7,4,6,6.8,92
"2022-03-12 03:19:00",8.4,7.2,0.2,0.0,0,1003.7,3,6,6.8,92
"2022-03-12 03:20:00",8.4,7.2,0.2,0.0,0,1003.7,3,7,6.5,92
"2022-03-12 03:21:00",8.4,7.2,0.2,0.0,0,1003.8,4,8,6.2,92
"2022-03-12 03:22:00",8.3,7.1,0.2,0.0,0,1003.8,4,8,6.2,92
"2022-03-12 03:23:00",8.3,7.1,0.2,0.0,0,1003.7,3,5,7.0,92
"2022-03-12 03:24:00",8.3,7.1,0.2,0.0,0,1003.8,3,9,5.9,92
"2022-03-12 03:25:00",8.3,7.1,0.2,0.0,0,1003.8,5,7,6.4,92
"2022-03-12 03:26:00",8.3,7.1,0.2,0.0,0,1003.9,4,8,6.1,92
"2022-03-12 03:27:00",8.3,7.1,0.2,0.0,0,1003.8,4,7,6.4,92
"2022-03-12 03:28:00",8.3,7.1,0.2,0.0,0,1003.8,3,5,7.0,92
"2022-03-12 03:29:00",8.3,7.1,0.2,0.0,0,1003.8,3,6,6.7,92
"2022-03-12 03:30:00",8.2,7.0,0.2,0.0,0,1003.9,3,5,7.0,92
"2022-03-12 03:31:00",8.3,7.1,0.2,0.0,0,1003.9,3,6,6.7,92
"2022-03-12 03:32:00",8.2,7.0,0.2,0.0,0,1003.9,4,5,6.9,92
"2022-03-12 03:33:00",8.2,7.0,0.2,0.0,0,1003.9,3,5,6.9,92
"2022-03-12 03:34:00",8.2,7.0,0.2,0.0,0,1003.9,2,3,"",92
"2022-03-12 03:35:00",8.2,7.0,0.2,0.0,0,1003.9,2,4,7.3,92
"2022-03-12 03:36:00",8.2,7.1,0.2,0.0,0,1003.9,1,3,"",93
"2022-03-12 03:37:00",8.2,7.1,0.2,0.0,0,1003.9,2,4,7.3,93
"2022-03-12 03:38:00",8.2,7.1,0.2,0.0,0,1004.0,5,8,6.0,93
"2022-03-12 03:39:00",8.2,7.1,0.4,0.0,0,1003.9,3,5,6.9,93
"2022-03-12 03:40:00",8.2,7.1,0.4,0.0,0,1003.9,2,3,"",93
"2022-03-12 03:41:00",8.2,7.1,0.4,0.0,0,1004.0,3,5,6.9,93
"2022-03-12 03:42:00",8.2,7.1,0.4,0.0,0,1003.9,2,4,7.3,93
"2022-03-12 03:43:00",8.2,7.1,0.4,0.0,0,1004.0,3,8,6.0,93
"2022-03-12 03:44:00",8.2,7.1,0.4,0.0,0,1004.0,2,4,7.3,93
"2022-03-12 03:45:00",8.2,7.1,0.4,0.0,0,1004.0,3,5,6.9,93
"2022-03-12 03:46:00",8.2,7.1,0.4,0.0,0,1004.0,3,5,6.9,93
"2022-03-12 03:47:00",8.2,7.1,0.4,0.0,0,1004.0,2,4,7.3,93
"2022-03-12 03:48:00",8.1,7.0,0.4,0.0,0,1004.0,2,3,"",93
"2022-03-12 03:49:00",8.2,7.1,0.4,0.0,0,1004.1,3,6,6.5,93
"2022-03-12 03:50:00",8.1,7.0,0.4,0.0,0,1004.0,2,6,6.4,93
"2022-03-12 03:51:00",8.1,7.0,0.4,0.0,0,1004.1,2,6,6.4,93
"2022-03-12 03:52:00",8.2,7.1,0.4,0.0,0,1004.1,2,4,7.2,93
"2022-03-12 03:53:00",8.1,7.0,0.4,0.0,0,1004.1,2,3,"",93
"2022-03-12 03:54:00",8.2,7.1,0.4,0.0,0,1004.2,1,4,7.2,93
"2022-03-12 03:55:00",8.1,7.0,0.4,0.0,0,1004.2,2,3,"",93
"2022-03-12 03:56:00",8.1,7.0,0.4,0.0,0,1004.2,2,3,"",93
"2022-03-12 03:57:00",8.1,7.0,0.4,0.0,0,1004.2,3,4,7.2,93
"2022-03-12 03:58:00",8.1,7.0,0.6,0.0,0,1004.3,3,6,6.4,93
"2022-03-12 03:59:00",8.1,7.0,0.6,0.0,0,1004.2,4,10,5.4,93
"2022-03-12 04:00:00",8.1,7.0,0.6,0.0,0,1004.3,3,5,6.8,93
"2022-03-12 04:01:00",8.1,7.0,0.6,0.0,0,1004.3,4,7,6.1,93
"2022-03-12 04:02:00",8.1,7.0,0.6,0.0,0,1004.3,3,5,6.8,93
"2022-03-12 04:03:00",8.1,7.0,0.6,0.0,0,1004.4,3,7,6.1,93
"2022-03-12 04:04:00",8.1,7.0,0.6,0.0,0,1004.4,4,7,6.1,93
"2022-03-12 04:05:00",8.1,7.0,0.6,0.0,0,1004.3,3,4,7.2,93
"2022-03-12 04:06:00",8.1,7.0,0.6,0.0,0,1004.3,3,6,6.4,93
"2022-03-12 04:07:00",8.1,7.0,0.6,0.0,0,1004.3,3,6,6.4,93
"2022-03-12 04:08:00",8.1,7.0,0.6,0.0,0,1004.3,2,3,"",93
"2022-03-12 04:09:00",8.1,7.0,0.6,0.0,0,1004.4,2,4,7.2,93
"2022-03-12 04:10:00",8.1,7.0,0.6,0.0,0,1004.4,2,3,"",93
"2022-03-12 04:11:00",8.0,6.9,0.6,0.0,0,1004.5,2,4,7.2,93
"2022-03-12 04:12:00",8.1,7.0,0.6,0.0,0,1004.4,3,5,6.6,93
"2022-03-12 04:13:00",8.0,6.9,0.6,0.0,0,1004.4,3,5,6.6,93
"2022-03-12 04:14:00",7.9,6.8,0.6,0.0,0,1004.5,2,4,6.9,93
"2022-03-12 04:15:00",8.0,6.9,0.6,0.0,0,1004.5,2,4,6.9,93
"2022-03-12 04:16:00",7.9,6.8,0.6,0.0,0,1004.5,2,3,"",93
"2022-03-12 04:17:00",7.9,6.8,0.6,0.0,0,1004.5,3,5,6.5,93
"2022-03-12 04:18:00",7.9,6.8,0.6,0.0,0,1004.5,3,5,6.5,93
"2022-03-12 04:19:00",7.9,6.8,0.6,0.0,0,1004.5,3,5,6.5,93
"2022-03-12 04:20:00",7.8,6.7,0.6,0.0,0,1004.5,2,4,6.8,93
"2022-03-12 04:21:00",7.8,6.7,0.6,0.0,0,1004.5,2,3,"",93
"2022-03-12 04:22:00",7.8,6.7,0.6,0.0,0,1004.5,2,3,"",93
"2022-03-12 04:23:00",7.8,6.7,0.6,0.0,0,1004.4,2,6,6.1,93
"2022-03-12 04:24:00",7.8,6.7,0.6,0.0,0,1004.5,4,6,6.1,93
"2022-03-12 04:25:00",7.8,6.7,0.6,0.0,0,1004.4,2,4,6.8,93
"2022-03-12 04:26:00",7.8,6.7,0.6,0.0,0,1004.6,3,5,6.4,93
"2022-03-12 04:27:00",7.7,6.6,0.6,0.0,0,1004.6,3,5,6.4,93
"2022-03-12 04:28:00",7.7,6.6,0.6,0.0,0,1004.6,2,4,6.8,93
"2022-03-12 04:29:00",7.7,6.6,0.6,0.0,0,1004.6,3,5,6.3,93
"2022-03-12 04:30:00",7.7,6.6,0.6,0.0,0,1004.6,2,4,6.7,93
"2022-03-12 04:31:00",7.7,6.6,0.6,0.0,0,1004.7,2,3,"",93
"2022-03-12 04:32:00",7.7,6.6,0.6,0.0,0,1004.7,2,4,6.7,93
"2022-03-12 04:33:00",7.6,6.5,0.6,0.0,0,1004.7,2,5,6.2,93
"2022-03-12 04:34:00",7.6,6.5,0.6,0.0,0,1004.7,2,3,"",93
"2022-03-12 04:35:00",7.6,6.5,0.6,0.0,0,1004.8,2,4,6.6,93
"2022-03-12 04:36:00",7.6,6.5,0.6,0.0,0,1004.8,3,4,6.6,93
"2022-03-12 04:37:00",7.6,6.5,0.6,0.0,0,1004.8,3,4,6.6,93
"2022-03-12 04:38:00",7.5,6.4,0.6,0.0,0,1004.9,2,4,6.6,93
"2022-03-12 04:39:00",7.5,6.4,0.6,0.0,0,1004.9,2,3,"",93
"2022-03-12 04:40:00",7.5,6.4,0.6,0.0,0,1004.9,2,5,6.1,93
"2022-03-12 04:41:00",7.5,6.4,0.6,0.0,0,1004.9,2,4,6.5,93
"2022-03-12 04:42:00",7.5,6.4,0.6,0.0,0,1005.0,2,3,"",93
"2022-03-12 04:43:00",7.5,6.4,0.6,0.0,0,1005.0,3,5,5.9,93
"2022-03-12 04:44:00",7.4,6.3,0.6,0.0,0,1005.0,2,5,5.9,93
"2022-03-12 04:45:00",7.4,6.3,0.6,0.0,0,1005.0,2,2,"",93
"2022-03-12 04:46:00",7.4,6.3,0.6,0.0,0,1005.0,2,3,"",93
"2022-03-12 04:47:00",7.4,6.3,0.6,0.0,0,1005.0,2,4,6.4,93
"2022-03-12 04:48:00",7.4,6.3,0.6,0.0,0,1005.1,2,3,"",93
"2022-03-12 04:49:00",7.3,6.2,0.6,0.0,0,1005.1,1,3,"",93
"2022-03-12 04:50:00",7.4,6.3,0.6,0.0,0,1005.1,1,3,"",93
"2022-03-12 04:51:00",7.4,6.3,0.6,0.0,0,1005.2,1,3,"",93
"2022-03-12 04:52:00",7.3,6.2,0.6,0.0,0,1005.2,2,3,"",93
"2022-03-12 04:53:00",7.3,6.2,0.6,0.0,0,1005.3,2,2,"",93
"2022-03-12 04:54:00",7.3,6.2,0.6,0.0,0,1005.3,2,2,"",93
"2022-03-12 04:55:00",7.3,6.2,0.6,0.0,0,1005.4,2,3,"",93
"2022-03-12 04:56:00",7.3,6.2,0.6,0.0,0,1005.4,2,4,6.2,93
"2022-03-12 04:57:00",7.3,6.2,0.6,0.0,0,1005.4,1,2,"",93
"2022-03-12 04:58:00",7.2,6.1,0.6,0.0,0,1005.5,3,6,5.5,93
"2022-03-12 04:59:00",7.2,6.1,0.6,0.0,0,1005.5,1,4,6.1,93
"2022-03-12 05:00:00",7.2,6.1,0.6,0.0,0,1005.5,2,4,6.1,93
"2022-03-12 05:01:00",7.2,6.1,0.6,0.0,0,1005.5,3,6,5.4,93
"2022-03-12 05:02:00",7.2,6.1,0.6,0.0,0,1005.5,3,6,5.4,93
"2022-03-12 05:03:00",7.2,6.1,0.6,0.0,0,1005.5,3,4,6.1,93
"2022-03-12 05:04:00",7.2,6.1,0.6,0.0,0,1005.5,1,3,"",93
"2022-03-12 05:05:00",7.2,6.1,0.6,0.0,0,1005.5,3,6,5.4,93
"2022-03-12 05:06:00",7.2,6.1,0.6,0.0,0,1005.5,2,4,6.1,93
"2022-03-12 05:07:00",7.2,6.1,0.6,0.0,0,1005.5,2,5,5.7,93
"2022-03-12 05:08:00",7.2,6.1,0.6,0.0,0,1005.5,4,7,5.0,93
"2022-03-12 05:09:00",7.2,6.1,0.6,0.0,0,1005.5,1,3,"",93
"2022-03-12 05:10:00",7.2,6.1,0.6,0.0,0,1005.6,2,2,"",93
"2022-03-12 05:11:00",7.2,6.1,0.6,0.0,0,1005.6,3,5,5.7,93
"2022-03-12 05:12:00",7.2,6.1,0.6,0.0,0,1005.6,1,2,"",93
"2022-03-12 05:13:00",7.2,6.1,0.6,0.0,0,1005.7,1,3,"",93
"2022-03-12 05:14:00",7.1,6.0,0.6,0.0,0,1005.6,2,4,6.1,93
"2022-03-12 05:15:00",7.2,6.1,0.6,0.0,0,1005.7,2,4,6.1,93
"2022-03-12 05:16:00",7.1,6.0,0.6,0.0,0,1005.7,2,4,6.1,93
"2022-03-12 05:17:00",7.1,6.0,0.6,0.0,0,1005.7,3,6,5.2,93
"2022-03-12 05:18:00",7.1,6.0,0.6,0.0,0,1005.7,1,2,"",93
"2022-03-12 05:19:00",7.1,6.0,0.6,0.0,0,1005.7,1,2,"",93
"2022-03-12 05:20:00",7.1,6.0,0.6,0.0,0,1005.7,2,4,6.0,93
"2022-03-12 05:21:00",7.1,6.2,0.6,0.0,0,1005.7,1,2,"",94
"2022-03-12 05:22:00",7.2,6.1,0.6,0.0,0,1005.7,2,5,5.7,93
"2022-03-12 05:23:00",7.2,6.1,0.6,0.0,0,1005.7,1,4,6.0,93
"2022-03-12 05:24:00",7.1,6.0,0.6,0.0,0,1005.7,1,2,"",93
"2022-03-12 05:25:00",7.1,6.0,0.6,0.0,0,1005.7,1,2,"",93
"2022-03-12 05:26:00",7.1,6.0,0.6,0.0,0,1005.8,1,2,"",93
"2022-03-12 05:27:00",7.1,6.2,0.6,0.0,0,1005.7,1,3,"",94
"2022-03-12 05:28:00",7.1,6.2,0.6,0.0,0,1005.8,3,4,6.0,94
"2022-03-12 05:29:00",7.1,6.0,0.6,0.0,0,1005.8,1,3,"",93
"2022-03-12 05:30:00",7.1,6.2,0.6,0.0,0,1005.8,1,2,"",94
"2022-03-12 05:31:00",7.1,6.2,0.6,0.0,0,1005.8,1,2,"",94
"2022-03-12 05:32:00",7.1,6.2,0.6,0.0,0,1005.8,1,3,"",94
"2022-03-12 05:33:00",7.1,6.2,0.6,0.0,0,1005.8,1,2,"",94
"2022-03-12 05:34:00",7.1,6.2,0.6,0.0,0,1005.8,1,2,"",94
"2022-03-12 05:35:00",7.1,6.2,0.6,0.0,0,1005.8,1,2,"",94
"2022-03-12 05:36:00",7.1,6.2,0.6,0.0,0,1005.8,2,3,"",94
"2022-03-12 05:37:00",7.1,6.2,0.6,0.0,0,1005.8,2,3,"",94
"2022-03-12 05:38:00",7.1,6.2,0.6,0.0,0,1005.8,2,4,6.0,94
"2022-03-12 05:39:00",7.1,6.2,0.6,0.0,0,1005.8,2,4,6.0,94
"2022-03-12 05:40:00",7.1,6.2,0.6,0.0,0,1005.8,2,3,"",94
"2022-03-12 05:41:00",7.1,6.2,0.6,0.0,0,1005.8,2,3,"",94
"2022-03-12 05:42:00",7.1,6.2,0.6,0.0,0,1005.8,2,4,6.0,94
"2022-03-12 05:43:00",7.1,6.2,0.6,0.0,0,1005.9,3,6,5.2,94
"2022-03-12 05:44:00",7.1,6.2,0.6,0.0,0,1005.9,2,3,"",94
"2022-03-12 05:45:00",7.1,6.2,0.6,0.0,0,1005.9,2,2,"",94
"2022-03-12 05:46:00",7.1,6.2,0.6,0.0,0,1005.9,2,5,5.6,94
"2022-03-12 05:47:00",7.1,6.2,0.6,0.0,0,1006.0,3,6,5.2,94
"2022-03-12 05:48:00",7.1,6.2,0.6,0.0,0,1005.9,3,5,5.5,94
"2022-03-12 05:49:00",7.1,6.2,0.6,0.0,0,1005.9,2,5,5.6,94
"2022-03-12 05:50:00",7.1,6.2,0.6,0.0,0,1005.9,2,4,6.0,94
"2022-03-12 05:51:00",7.1,6.2,0.6,0.0,0,1006.0,2,4,5.9,94
"2022-03-12 05:52:00",7.1,6.2,0.6,0.0,0,1006.0,3,7,4.8,94
"2022-03-12 05:53:00",7.1,6.2,0.6,0.0,0,1006.0,2,5,5.6,94
"2022-03-12 05:54:00",7.1,6.2,0.6,0.0,0,1006.0,3,4,5.9,94
"2022-03-12 05:55:00",7.1,6.2,0.6,0.0,0,1006.0,3,5,5.6,94
"2022-03-12 05:56:00",7.1,6.2,0.6,0.0,0,1006.0,2,3,"",94
"2022-03-12 05:57:00",7.1,6.2,0.6,0.0,0,1006.0,3,6,5.2,94
"2022-03-12 05:58:00",7.1,6.2,0.6,0.0,0,1006.1,3,5,5.6,94
"2022-03-12 05:59:00",7.1,6.2,0.6,0.0,0,1006.0,1,3,"",94
"2022-03-12 06:00:00",7.1,6.2,0.6,0.0,0,1006.1,2,4,6.0,94
"2022-03-12 06:01:00",7.1,6.2,0.6,0.0,0,1006.0,1,2,"",94
"2022-03-12 06:02:00",7.1,6.2,0.6,0.0,0,1006.1,2,5,5.6,94
"2022-03-12 06:03:00",7.1,6.2,0.6,0.0,0,1006.1,2,3,"",94
"2022-03-12 06:04:00",7.1,6.2,0.6,0.0,0,1006.1,3,6,5.2,94
"2022-03-12 06:05:00",7.1,6.2,0.6,0.0,0,1006.1,1,3,"",94
"2022-03-12 06:06:00",7.1,6.2,0.6,0.0,0,1006.2,2,5,5.6,94
"2022-03-12 06:07:00",7.1,6.2,0.6,0.0,0,1006.1,3,7,4.9,94
"2022-03-12 06:08:00",7.1,6.2,0.6,0.0,0,1006.1,3,6,5.2,94
"2022-03-12 06:09:00",7.1,6.2,0.6,0.0,0,1006.1,3,10,4.2,94
"2022-03-12 06:10:00",7.1,6.2,0.6,0.0,0,1006.1,5,9,4.4,94
"2022-03-12 06:11:00",7.1,6.2,0.6,0.0,0,1006.2,2,4,6.0,94
"2022-03-12 06:12:00",7.1,6.2,0.6,0.0,0,1006.2,3,5,5.6,94
"2022-03-12 06:13:00",7.2,6.3,0.6,0.0,0,1006.2,2,4,6.1,94
"2022-03-12 06:14:00",7.2,6.3,0.6,0.0,0,1006.2,3,6,5.2,94
"2022-03-12 06:15:00",7.2,6.3,0.6,0.0,0,1006.2,3,5,5.6,94
"2022-03-12 06:16:00",7.1,6.2,0.6,0.0,0,1006.3,2,3,"",94
"2022-03-12 06:17:00",7.1,6.2,0.6,0.0,0,1006.3,3,4,6.0,94
"2022-03-12 06:18:00",7.1,6.2,0.6,0.0,0,1006.3,2,4,6.0,94
"2022-03-12 06:19:00",7.1,6.2,0.6,0.0,0,1006.2,2,4,6.0,94
"2022-03-12 06:20:00",7.1,6.2,0.6,0.0,0,1006.2,2,4,6.0,94
"2022-03-12 06:21:00",7.1,6.2,0.6,0.0,0,1006.2,2,4,6.0,94
"2022-03-12 06:22:00",7.1,6.2,0.6,0.0,0,1006.2,2,4,6.0,94
"2022-03-12 06:23:00",7.1,6.2,0.6,0.0,0,1006.2,3,5,5.6,94
"2022-03-12 06:24:00",7.1,6.2,0.6,0.0,0,1006.3,2,4,6.0,94
"2022-03-12 06:25:00",7.1,6.2,0.6,0.0,0,1006.3,3,5,5.6,94
"2022-03-12 06:26:00",7.1,6.2,0.6,0.0,0,1006.3,2,3,"",94
"2022-03-12 06:27:00",7.1,6.2,0.6,0.0,0,1006.3,2,3,"",94
"2022-03-12 06:28:00",7.1,6.2,0.6,0.0,0,1006.4,3,5,5.6,94
"2022-03-12 06:29:00",7.1,6.2,0.6,0.0,0,1006.3,1,3,"",94
"2022-03-12 06:30:00",7.1,6.2,0.6,0.0,0,1006.4,2,4,6.0,94
"2022-03-12 06:31:00",7.0,6.1,0.6,0.0,0,1006.4,3,4,5.9,94
"2022-03-12 06:32:00",7.1,6.2,0.6,0.0,0,1006.3,3,4,5.9,94
"2022-03-12 06:33:00",7.0,6.1,0.6,0.0,0,1006.3,2,3,"",94
"2022-03-12 06:34:00",7.0,6.1,0.6,0.0,0,1006.4,2,3,"",94
"2022-03-12 06:35:00",6.9,6.0,0.6,0.0,0,1006.4,2,3,"",94
"2022-03-12 06:36:00",6.9,6.0,0.6,0.0,0,1006.4,1,2,"",94
"2022-03-12 06:37:00",6.9,6.0,0.6,0.0,5,1006.4,2,5,5.4,94
"2022-03-12 06:38:00",6.9,6.0,0.6,0.0,5,1006.4,2,4,5.8,94
"2022-03-12 06:39:00",6.9,6.0,0.6,0.0,5,1006.4,3,6,5.0,94
"2022-03-12 06:40:00",6.9,6.0,0.6,0.0,5,1006.5,3,6,5.0,94
"2022-03-12 06:41:00",6.9,6.0,0.6,0.0,5,1006.4,1,2,"",94
"2022-03-12 06:42:00",6.9,6.0,0.6,0.0,5,1006.5,2,5,5.4,94
"2022-03-12 06:43:00",6.9,6.0,0.6,0.0,5,1006.5,2,4,5.8,94
"2022-03-12 06:44:00",6.8,5.9,0.6,0.0,5,1006.5,2,3,"",94
"2022-03-12 06:45:00",6.8,5.9,0.6,0.0,7,1006.5,1,2,"",94
"2022-03-12 06:46:00",6.8,5.9,0.6,0.0,7,1006.6,2,3,"",94
"2022-03-12 06:47:00",6.8,5.9,0.6,0.0,7,1006.6,3,6,4.9,94
"2022-03-12 06:48:00",6.8,5.9,0.6,0.0,7,1006.7,2,3,"",94
"2022-03-12 06:49:00",6.8,5.9,0.6,0.0,7,1006.7,2,5,5.2,94
"2022-03-12 06:50:00",6.8,5.9,0.6,0.0,7,1006.7,2,3,"",94
"2022-03-12 06:51:00",6.8,5.9,0.6,0.0,7,1006.7,1,3,"",94
"2022-03-12 06:52:00",6.7,5.8,0.6,0.0,7,1006.8,2,4,5.5,94